Regional Weather Roundup
Issued by NWS

Home | Current Version | Previous Version | Graphics & Text | Print | Product List | Glossary On
Versions: 1 2 3 4 5 6 7 8 9 10 11 12 13 14 15 16 17 18 19 20 21 22 23 24 25 26 27 28 29 30 31 32 33 34 35 36 37 38 39 40 41 42 43 44 45 46 47 48 49 50
000
ASUS45 KSLC 242110
RWRUT

UTAH REGIONAL WEATHER ROUNDUP
NATIONAL WEATHER SERVICE SALT LAKE CITY UT
300 PM MDT THU JUL 24 2014

UTZ001>011-023>025-242200-

NORTHERN UTAH

CITY           SKY/WX    TMP DP  RH WIND       PRES   REMARKS
HILL AFB         N/A     90  39  16 VRB7      30.08F
LOGAN          SUNNY     90  39  16 NW7       30.04F
OGDEN            N/A     92  36  14 NW12      30.04F
PROVO AIRPORT  MOSUNNY   95  41  15 S9        30.01  HX  91
SALT LAKE CITY   N/A     91  40  16 N13G20    30.02F
VERNAL         MOSUNNY   88  47  24 VRB7      30.11F
WENDOVER         N/A     93  32  11 SE14      30.03F
HEBER CITY       N/A     95  36  12 SW23G29   30.10F HX  90
WEST JORDAN    SUNNY     90  50  25 NW22      30.05F

$$

UTZ012>022-026-027-242200-

SOUTHERN UTAH

CITY           SKY/WX    TMP DP  RH WIND       PRES   REMARKS
BRYCE CANYON     N/A     80  32  17 SW10      30.35F
CEDAR CITY       N/A     94  30  10 S16G24    30.14F
MILFORD          N/A     98  26   7 S22G29    30.06F HX  91
MOAB/CYNLANDS  SUNNY     93  46  19 VRB7      30.05F
PRICE          CLOUDY    82  49  31 VRB6      30.18F THUNDER
ST GEORGE        N/A    102  39  11 NW6       29.92F HX  97

$$

REGIONAL REPORTS     COLORADO/ARIZONA

CITY           SKY/WX    TMP DP  RH WIND       PRES   REMARKS
CRAIG, CO      CLOUDY    76  53  44 SW16      30.22F
GRAND JUNCTION PTSUNNY   89  47  23 W3        30.10F
RIFLE          PTSUNNY   88  47  24 VRB5      30.16F
MONTROSE       PTSUNNY   88  50  27 NE5       30.20F
CORTEZ         PTSUNNY   86  49  27 VRB3      30.21F
PAGE, AZ         N/A     99  47  17 CALM      30.05F HX  95
GRAND CANYON     N/A     85  45  24 S9        30.28F
KINGMAN          N/A    104  42  12 W18G26    29.98F HX  99
FLAGSTAFF        N/A     79  50  36 N7        30.32F THUNDER

$$

REGIONAL REPORTS    NEVADA/IDAHO/WYOMING

CITY           SKY/WX    TMP DP  RH WIND       PRES   REMARKS
LAS VEGAS, NV    N/A    110  32   7 SW18G26   29.79F HX 102
ELY              N/A     92  16   6 S21G36    30.15F
ELKO             N/A     84  26  12 SW8G22    30.13F
POCATELLO, ID  SUNNY     80  38  22 W23G30    30.15F
BURLEY           N/A     72  43  35 W14G23    30.16F
EVANSTON, WY   MOSUNNY   86  39  19 W21G35    30.22F
ROCK SPRINGS   MOSUNNY   85  37  18 W16       30.17F

$$



USA.gov is the U.S. government's official web portal to all federal, state and local government web resources and services.